Theta_e
352 353 348 346 350 346 348 346 349 349 349 349 354 352 357 357 354 355 354 353 354 352 351 352 355 351 345 346 351 350 347 346 346 345 345 346 345 344 343 344 348 349 349
354 354 354 348 348 350 349 344 348 348 350 356 355 354 354 353 354 357 356 353 355 355 352 353 354 355 351 351 349 350 352 353 353 351 349 346 347 355 353 353 351 351 351
356 353 356 355 348 350 348 346 342 345 348 350 355 355 355 355 354 352 354 354 352 355 355 353 350 354 357 355 353 353 352 354 356 359 357 356 355 350 350 352 354 352 351
357 357 355 355 355 348 347 345 347 344 351 349 350 357 352 353 352 352 354 354 352 353 355 358 357 358 355 354 355 356 355 354 353 354 354 355 357 355 356 354 354 353 354
359 359 358 357 356 356 352 350 344 353 349 356 355 353 358 355 354 354 352 353 353 355 352 352 357 357 354 355 357 357 357 357 358 358 359 360 360 358 356 353 354 354 349
358 360 359 358 357 357 357 355 353 347 358 353 353 355 355 357 356 355 353 353 357 358 357 355 354 356 356 355 355 355 358 360 361 362 361 358 357 355 351 351 352 353 356
354 359 359 359 359 358 358 356 356 352 351 359 358 356 356 355 358 358 357 354 351 352 356 357 356 354 355 357 357 356 354 354 354 355 355 355 355 353 353 354 355 356 357
354 356 358 359 359 359 358 358 356 356 354 353 355 357 359 358 357 359 358 357 355 353 350 355 357 356 355 354 355 356 354 353 353 354 355 355 356 356 357 356 354 357 358
351 355 357 358 359 359 358 358 358 357 358 356 358 359 360 360 359 358 360 357 354 354 353 351 351 351 351 353 354 355 356 359 361 361 362 360 355 352 354 354 356 358 356
349 357 357 357 358 358 359 358 359 357 357 359 358 359 360 360 360 360 359 359 357 353 352 353 352 352 352 354 356 355 353 354 352 349 351 353 354 356 359 358 357 355 352
354 359 358 357 357 358 358 359 358 358 357 357 359 359 360 361 361 360 360 362 358 354 353 352 351 351 350 349 349 350 353 350 354 357 356 357 358 358 356 356 359 362 362
350 360 360 360 357 359 359 359 359 359 359 359 359 360 360 361 362 362 361 360 361 358 355 354 353 352 352 351 351 352 352 352 352 353 354 355 355 352 357 358 360 362 364
342 354 360 362 360 359 360 360 360 360 360 360 360 361 361 362 363 363 363 362 361 361 358 356 355 356 356 355 355 354 354 355 354 352 352 352 352 357 359 361 363 363 361
338 350 361 362 364 360 363 362 362 362 362 362 362 362 363 362 363 364 365 365 363 363 362 358 357 356 355 354 354 355 355 353 351 351 351 353 360 361 363 363 362 361 359
333 346 363 363 365 364 364 365 364 364 364 363 363 363 362 363 363 363 365 365 365 363 362 358 356 357 357 356 356 355 356 360 355 355 357 360 361 361 363 363 361 359 358
330 343 357 364 366 365 364 361 366 366 365 365 364 364 364 363 364 364 363 365 364 362 358 356 355 356 356 357 356 355 355 360 361 361 361 362 363 364 363 360 359 359 358
327 332 342 360 365 366 366 364 358 357 365 366 365 365 364 364 362 362 364 361 361 363 356 356 357 357 357 357 358 358 356 357 360 364 363 360 362 361 358 358 357 359 357
326 330 335 348 355 361 364 365 363 355 353 356 363 365 364 360 359 358 357 356 353 356 356 355 356 359 360 361 361 362 363 363 364 362 361 361 361 360 359 359 359 356 354
324 327 331 341 350 356 360 363 363 358 355 353 350 355 358 358 358 359 360 360 354 355 357 358 359 359 360 362 362 360 359 358 359 360 360 361 360 359 357 355 353 353 349
324 328 332 340 347 348 351 357 362 361 358 347 349 354 353 352 353 356 353 355 358 358 359 357 352 345 348 349 342 347 356 357 357 358 360 359 358 355 353 345 344 342 342
319 323 324 327 333 335 341 345 349 352 352 350 349 349 349 350 345 341 340 342 344 345 342 344 351 354 343 339 345 337 342 354 355 355 351 351 350 350 344 342 341 342 342
314 316 319 319 322 326 327 333 338 343 346 349 348 344 342 343 351 353 348 347 347 347 350 348 342 341 347 341 339 345 343 342 342 341 340 341 341 340 340 339 339 339 338
309 310 310 311 313 316 319 319 319 321 328 340 342 341 339 335 337 334 330 328 329 330 330 327 325 324 324 323 327 329 333 330 332 334 335 337 338 336 336 336 337 336 336
303 303 304 304 304 305 306 309 312 310 311 312 315 319 320 322 321 320 319 319 318 318 318 318 315 315 319 321 323 318 318 321 323 325 329 331 331 331 332 334 334 335 335
298 299 299 299 300 300 300 299 301 303 305 307 307 305 304 304 307 305 306 309 306 308 308 305 306 308 309 311 312 311 311 313 316 320 325 326 328 328 326 328 329 332 335
297 297 297 296 296 297 297 297 296 296 297 298 298 303 306 307 302 302 296 297 302 302 302 299 298 299 299 300 303 307 309 310 314 318 321 319 318 318 320 321 322 323 324
Wind_Speed
41 38 38 39 42 39 34 33 26 23 21 16 29 28 25 23 19 19 17 15 18 16 14 14 13 14 12 13 9 6 10 11 10 16 16 16 18 19 20 20 22 25 29
41 38 38 38 38 40 38 36 32 28 26 18 23 26 27 25 23 21 21 20 18 19 19 18 18 16 17 13 14 13 11 9 9 13 17 19 20 17 18 22 25 28 30
40 41 36 36 40 38 41 38 37 33 33 30 22 27 27 25 24 23 24 23 22 18 21 21 19 18 19 18 17 15 14 13 12 10 15 16 20 23 26 26 23 16 18
41 39 40 39 38 41 40 43 39 38 35 35 32 25 28 26 27 26 25 26 25 24 21 22 21 21 22 21 21 20 19 20 20 22 23 23 23 24 27 17 25 24 24
41 41 40 38 36 33 37 39 45 39 43 38 35 35 28 29 29 29 28 28 29 27 25 26 24 25 26 25 24 24 23 22 22 22 24 22 20 18 23 27 29 30 33
39 40 38 37 38 38 35 35 41 41 38 43 42 38 36 33 32 32 31 31 29 30 30 28 27 25 27 27 27 27 26 24 24 21 23 23 29 32 34 34 31 22 9
40 39 40 40 39 39 36 36 36 41 39 36 37 38 38 39 35 34 33 32 34 35 33 32 31 29 29 28 27 28 31 32 33 33 29 32 28 33 31 31 30 30 24
31 38 41 40 41 38 37 36 35 35 37 36 37 37 36 38 38 36 35 36 37 35 36 34 33 32 30 28 28 31 34 34 34 34 36 36 35 34 30 30 32 32 31
22 31 38 41 39 38 39 38 37 35 34 37 35 36 36 36 38 40 37 38 39 40 39 37 36 35 34 31 30 31 28 26 24 25 23 24 26 26 25 27 30 21 20
32 36 39 40 39 40 39 39 37 37 37 32 35 35 37 37 37 38 40 41 39 37 40 40 38 37 33 29 30 35 35 37 34 33 32 30 27 26 22 24 28 25 20
39 31 36 42 40 40 39 38 38 36 33 34 32 33 32 37 38 40 40 41 35 33 34 34 42 42 41 40 38 39 39 42 35 29 27 24 23 23 25 26 25 25 26
22 22 29 35 37 35 39 37 36 35 33 32 32 30 32 34 38 38 40 42 42 33 32 35 36 37 35 32 33 35 35 36 36 32 28 28 29 29 27 22 21 21 15
27 17 33 31 38 34 36 36 34 34 31 31 29 29 29 30 33 37 40 41 41 44 37 33 31 28 28 35 37 36 37 38 37 34 33 32 30 26 22 25 16 15 15
25 23 20 32 29 33 33 35 35 34 32 30 29 28 28 29 28 29 36 39 40 41 45 40 37 30 27 25 19 17 20 23 28 31 29 24 20 20 21 15 12 17 20
28 26 18 28 33 29 30 31 35 35 34 31 29 28 26 26 32 32 35 40 42 42 42 37 27 31 33 31 31 26 22 19 22 23 21 20 21 19 16 13 15 17 11
26 25 18 24 25 26 28 25 31 31 33 35 33 31 30 34 28 34 35 37 38 37 35 26 26 27 26 25 26 27 29 27 26 24 22 21 21 16 13 16 17 16 16
24 25 26 10 21 23 22 24 17 15 32 34 34 34 32 31 39 31 38 42 39 38 25 27 24 23 25 25 26 26 26 28 27 24 21 20 17 15 14 18 17 14 16
25 23 23 12 10 10 23 23 23 23 18 16 30 34 36 23 20 20 25 25 32 34 29 27 27 25 23 23 24 27 26 21 23 22 20 18 15 14 15 16 14 13 15
24 25 26 14 6 8 11 25 25 23 23 26 20 25 27 22 16 13 11 14 28 29 27 23 20 19 16 14 14 13 13 17 24 18 17 13 13 11 12 13 13 13 13
23 26 25 15 8 9 8 3 19 22 22 22 28 32 25 20 18 18 14 12 13 17 18 21 17 15 13 13 16 14 18 21 22 17 13 12 12 12 12 8 5 6 7
22 21 23 20 17 15 15 11 12 12 21 20 22 27 19 18 18 17 14 11 10 9 12 14 10 9 7 9 20 22 34 22 7 6 4 6 9 12 8 1 4 8 7
18 19 19 23 18 22 19 24 21 14 16 20 16 15 17 13 8 10 16 15 11 8 13 18 22 23 21 12 18 18 13 11 13 12 10 6 7 6 3 2 3 2 3
17 18 21 23 24 22 17 26 23 19 20 18 8 16 17 20 27 29 26 22 22 24 25 26 26 25 21 17 19 12 10 7 10 5 2 0 3 5 7 10 10 10 12
23 22 20 23 25 22 20 16 28 28 24 29 25 29 28 24 23 27 30 26 24 25 23 22 20 19 17 16 15 10 9 7 4 3 5 5 5 3 5 10 14 14 15
25 24 25 22 24 20 33 19 32 25 26 27 32 31 30 26 27 22 23 26 22 26 26 21 19 20 21 20 17 13 12 12 8 7 4 4 5 6 8 8 8 12 16
26 26 26 23 20 21 19 28 29 24 26 25 26 28 20 22 24 27 20 13 24 25 25 24 25 25 23 23 18 13 9 8 9 10 8 6 6 6 5 6 6 4 3
Wind_Direction
195 199 204 207 206 210 212 210 214 210 216 207 200 199 201 199 203 208 213 217 229 228 229 234 249 249 258 253 284 274 263 272 268 287 293 298 302 303 299 299 295 293 294
196 198 200 206 207 210 211 213 211 214 212 195 196 201 203 203 205 213 216 225 227 231 232 237 247 243 248 254 267 262 265 274 282 277 284 288 301 302 296 296 299 298 297
194 197 200 201 205 209 212 212 217 217 219 217 206 199 201 206 211 217 225 231 234 234 234 239 234 235 235 245 260 261 265 271 281 299 302 299 294 296 298 302 311 325 320
194 195 201 203 204 206 210 213 212 216 218 222 222 214 213 211 217 222 226 232 236 235 236 239 240 242 244 248 253 258 263 270 276 281 284 288 294 298 300 306 318 319 316
194 197 201 204 206 205 207 211 213 215 217 215 217 220 218 221 222 225 228 230 233 235 238 240 244 248 250 252 254 256 257 261 266 270 277 284 287 296 299 308 305 305 308
194 198 201 202 203 207 206 207 214 214 215 218 221 222 222 223 228 231 230 227 231 233 236 241 244 249 251 253 255 257 258 254 255 253 265 273 280 284 291 294 299 301 308
200 196 199 200 203 204 206 205 209 213 215 212 214 218 222 226 225 227 229 230 231 233 237 240 243 246 248 253 255 259 257 256 257 263 264 268 270 283 290 292 293 290 285
205 195 196 198 201 201 203 205 209 209 212 216 219 221 221 223 226 225 226 230 233 237 236 238 241 245 247 249 255 259 258 259 260 263 263 268 274 283 286 288 294 292 292
299 211 196 196 197 199 201 206 206 208 210 214 217 217 218 223 226 227 224 229 234 237 241 240 241 245 249 248 250 257 261 264 264 261 264 270 277 286 285 288 279 278 284
294 227 199 196 196 198 200 203 207 208 214 213 217 220 221 224 226 228 227 228 233 237 239 242 241 243 247 247 246 251 258 263 268 269 271 277 281 279 281 278 282 267 266
274 219 201 200 197 199 199 202 205 209 210 215 218 221 224 226 228 231 229 228 227 232 235 239 244 246 248 252 254 254 252 262 264 267 272 275 274 278 284 282 280 281 275
310 247 213 203 200 197 196 199 204 206 209 211 216 221 224 227 230 231 233 230 233 228 231 236 240 248 253 256 255 255 255 258 260 263 266 268 273 285 291 287 285 279 276
325 315 224 210 203 199 195 197 200 204 206 211 212 219 224 225 227 230 235 236 236 235 235 237 240 245 250 252 257 261 260 256 254 253 257 262 272 285 287 286 260 262 288
328 318 254 215 202 199 197 197 199 204 207 209 213 217 223 226 225 225 229 233 237 236 239 238 239 241 247 254 251 249 248 245 245 247 250 261 274 270 272 252 265 296 311
334 321 266 218 207 200 198 198 204 209 208 209 214 216 220 225 225 225 224 227 231 236 237 232 236 239 245 251 256 259 256 245 235 239 244 249 258 265 259 258 294 301 276
338 332 312 212 206 198 198 203 206 211 216 218 216 217 221 228 232 226 228 235 238 236 226 218 223 229 235 241 248 249 246 243 237 240 243 252 257 249 252 282 279 265 261
340 334 331 299 201 194 198 207 207 217 216 218 221 222 227 232 233 237 230 234 237 229 212 211 218 219 228 234 240 243 238 238 241 239 236 242 245 253 272 266 266 256 263
354 349 333 328 288 234 205 204 206 197 184 203 212 224 225 220 212 221 229 225 212 210 208 212 217 219 227 237 240 238 240 223 211 226 234 242 240 249 262 266 267 263 267
353 346 332 333 334 255 252 215 208 188 186 177 169 167 171 168 167 170 175 195 187 193 205 210 219 221 238 260 260 248 229 254 245 232 235 223 233 234 253 256 263 269 247
355 350 354 355 11 72 50 195 213 189 177 168 170 172 175 183 183 185 186 196 194 187 188 196 207 219 225 269 282 318 282 241 249 235 217 219 236 241 239 247 254 267 286
1 13 12 1 34 48 61 55 66 139 140 151 164 170 163 167 173 184 200 209 221 215 218 216 229 226 224 243 263 282 264 268 265 264 241 239 245 247 237 240 310 310 317
22 14 3 2 14 48 64 73 67 74 96 109 115 163 159 162 150 139 119 126 136 135 113 121 112 111 135 137 118 138 131 136 123 101 90 96 102 104 96 40 324 330 324
44 24 14 15 12 38 45 77 69 62 67 79 118 112 114 104 114 118 112 110 106 102 104 102 102 101 100 99 95 90 100 94 87 104 141 344 327 326 318 300 295 296 291
49 43 31 29 34 25 36 41 78 65 63 69 68 73 66 66 77 97 112 117 111 105 96 90 85 85 91 83 80 67 47 47 31 299 272 270 269 290 291 293 289 277 272
55 52 43 35 36 24 50 16 56 68 65 66 71 69 69 68 78 61 92 101 110 104 98 88 83 74 66 67 67 59 49 46 41 34 23 4 323 304 302 305 303 283 278
54 56 59 54 48 44 48 62 57 55 61 63 72 85 83 88 86 82 47 66 84 81 86 87 79 73 69 68 63 58 52 46 48 47 56 58 48 41 8 6 11 24 356